SCP
0 0 0 0 0 0 0 0 0 0 0 0 0 0 0 0 0 0 0 0 0 0 0 0 0 0 0 0 0 0 0 0 0 0 0 0 0 0 0 0 0 0 0 0 0 0 0 0 0 0 0 0 0 0
0 0 0 0 0 0 0 0 0 0 0 0 0 0 0 0 0 0 0 0 0 0 0 0 0 0 0 0 0 0 0 0 0 0 0 0 0 0 0 0 0 0 0 0 0 0 0 0 0 0 0 0 0 0
0 0 0 0 0 0 0 0 0 0 0 0 0 0 0 0 0 0 0 0 0 0 0 0 0 0 0 0 0 0 0 0 0 0 0 0 0 0 0 0 0 0 0 0 0 0 0 0 0 0 0 0 0 0
0 0 0 0 0 0 0 0 0 0 0 0 0 0 0 0 0 0 0 0 0 0 0 0 0 0 0 0 0 0 0 0 0 0 0 0 0 0 0 0 0 0 0 0 0 0 0 0 0 0 0 0 0 0
0 0 0 0 0 0 0 0 0 0 0 0 0 0 0 0 0 0 0 0 0 0 0 0 0 0 0 0 0 0 -0 0 0 0 0 0 0 0 0 0 0 0 0 0 0 0 0 0 0 0 0 0 0 0
0 0 0 0 0 0 0 0 0 0 0 0 0 0 0 0 0 0 0 0 0 0 0 0 0 0 0 0 0 0 0 0 0 0 0 0 0 0 0 0 0 0 0 0 0 0 0 0 -0 0 0 0 0 -0
0 0 0 0 0 0 0 0 0 0 0 0 0 0 0 0 0 0 0 0 0 0 0 0 0 0 0 0 0 0 0 0 0 0 0 0 0 0 0 0 0 0 0 0 0 0 0 0 0 0 0 -0 -0 -0
0 0 0 0 0 0 0 0 0 0 0 0 0 0 0 0 0 0 0 0 0 0 0 0 0 0 0 0 0 0 0 0 0 0 0 0 0 0 0 0 0 0 -0 -0 0 -0 -0 -0 0 0 -0 -0 -0 -0
0 0 0 0 0 0 0 0 0 0 0 0 0 0 0 0 0 0 0 0 0 0 0 0 0 0 0 0 0 0 0 0 0 0 0 0 0 0 0 0 0 -0 0 0 0 -0 -0 -0 -0 -0 -0 -0 -0 -0
0 0 0 0 0 0 0 0 0 0 0 0 0 0 0 -0 -0 -0 0 0 0 0 0 0 0 0 0 0 0 -0 0 -0 -0 -0 0 0 0 0 0 -0 -0 -0 0 -0 -0 -0 -0 -0 -0 -0 0 0 0 0
0 -0 -0 0 0 0 0 0 0 0 0 0 0 0 0 -0 0 0 0 0 0 0 -0 0 0 0 0 0 0 -0 0 0 -0 -0 0 0 0 0 0 -0 -0 -0 0 0 0 0 0 0 0 0 0 0 0 0
0 0 0 0 0 0 0 0 0 0 0 -0 0 0 -0 0 0 -0 0 0 0 0 0 0 0 0 0 0 0 0 0 0 -0 0 0 0 0 -0 -0 0 -0 -0 -0 0 0 0 0 0 0 0 0 0 0 0
0 0 0 0 0 0 0 0 -0 -0 0 0 -0 -0 -0 -0 -0 0 0 0 0 0 0 0 0 0 0 0 0 0 0 0 0 0 0 0 0 -0 -0 0 0 0 0 0 0 0 0 0 0 0 0 0 0 0
0 0 0 0 0 0 0 0 0 0 0 0 0 0 0 0 0 0 0 0 0 0 0 0 0 0 0 0 0 0 0 0 0 0 0 0 0 0 0 0 0 0 0 0 0 0 0 0 -0 -0 0 0 0 0
0 0 0 0 0 0 0 0 0 0 0 0 0 0 0 0 0 0 0 0 0 0 0 0 0 0 0 0 0 0 0 0 0 0 0 0 0 0 0 0 0 0 0 0 0 0 0 0 0 0 0 0 -0 0
-0 -0 0 0 -0 0 0 0 0 0 0 0 0 -0 0 0 0 0 0 0 0 0 0 0 0 0 0 0 0 0 0 0 0 0 0 0 0 0 0 0 0 0 0 0 0 0 0 -0 -0 0 0 -0 -0 0
0 -0 -0 -0 0 0 0 0 0 0 0 0 0 0 -0 0 0 0 0 0 0 0 0 0 0 0 0 0 0 0 0 0 0 0 0 0 0 0 0 0 0 0 0 0 0 0 0 0 0 0 0 0 -0 0
0 -0 0 -0 -0 -0 0 0 0 0 0 -0 -0 -0 -0 0 0 0 0 0 0 0 0 0 0 0 0 0 0 0 0 0 0 0 0 0 0 0 0 0 0 0 0 0 0 0 0 0 0 -0 0 0 0 0
0 -0 -0 -0 -0 -0 0 0 0 0 0 0 0 0 0 0 0 0 0 0 0 0 -0 0 0 0 0 0 0 0 0 0 0 0 0 0 0 0 0 0 0 0 0 0 0 0 0 0 0 0 0 0 0 0
-0 -0 0 0 -0 -0 0 0 0 0 0 0 0 0 0 0 0 0 0 0 0 0 -0 -0 0 0 0 0 0 0 0 0 0 0 0 0 0 0 0 0 0 0 0 0 0 0 0 0 0 0 0 0 0 0
0 0 -0 0 -0 -0 0 0 0 0 0 0 0 0 0 0 0 0 0 0 0 0 0 -0 0 0 0 0 0 0 0 0 0 0 0 0 0 0 0 0 0 0 0 0 0 0 0 0 0 0 0 0 0 0
0 0 0 0 0 0 0 0 0 0 0 0 0 0 0 0 0 0 0 0 0 0 0 0 0 0 0 0 0 0 0 0 0 0 0 0 0 0 0 0 -0 -0 -0 0 0 0 0 0 0 0 0 0 0 0
0 0 0 0 0 0 0 0 0 0 0 0 0 0 0 0 0 0 0 0 0 0 0 0 0 0 0 0 0 0 0 0 -0 0 0 0 0 0 0 0 -0 -0 -0 -0 0 0 0 0 0 0 0 0 0 0
0 0 0 0 0 0 0 0 0 0 0 0 0 0 0 0 0 0 0 0 0 0 0 0 0 0 0 0 0 0 -0 0 0 0 0 0 0 0 0 0 -0 -0 0 -0 0 0 -0 0 0 0 0 0 0 0
0 0 0 0 0 0 0 0 0 0 0 0 0 0 0 0 0 0 0 0 0 0 0 0 0 0 0 0 0 0 -0 0 0 0 0 0 0 0 0 0 0 -0 -0 -0 0 -0 -0 0 0 0 0 0 0 0
0 0 0 0 0 0 0 0 0 0 0 0 0 0 0 0 0 0 0 0 0 0 0 0 0 0 0 0 0 0 0 0 0 -0 0 0 0 0 0 0 0 0 -0 -0 -0 0 0 0 0 0 0 0 0 0
0 0 0 0 -0 0 0 0 0 0 0 0 0 0 0 0 0 0 0 0 0 0 0 0 0 0 0 0 0 0 0 0 -0 -0 -0 0 -0 0 0 -0 0 -0 -0 0 0 -0 0 0 -0 0 0 0 0 0
0 0 0 0 0 0 0 0 0 0 0 0 0 0 0 0 0 0 0 0 0 0 0 0 0 0 0 0 0 0 0 0 -0 0 0 -0 0 0 0 0 0 -0 0 0 -0 -0 -0 -0 0 0 0 0 0 0
0 0 0 0 -0 0 0 0 0 -0 0 -0 0 0 0 0 0 0 0 0 0 0 0 0 0 0 0 0 0 0 0 0 0 0 0 0 0 0 0 -0 0 0 0 0 -0 -0 0 0 -0 -0 0 0 0 0
0 0 0 0 0 0 0 0 -0 -0 -0 -0 -0 -0 0 0 0 0 0 0 0 0 0 0 0 0 0 0 0 0 0 0 0 0 0 0 0 0 0 0 0 0 0 -0 -0 -0 0 0 -0 0 0 0 0 0
0 0 0 0 0 0 0 0 0 0 0 0 0 0 0 0 0 0 0 0 0 0 0 0 0 0 0 0 0 0 0 -0 0 0 0 0 0 0 0 0 0 0 0 -0 -0 -0 0 0 0 0 0 0 0 0
0 0 0 0 0 0 0 0 0 0 0 0 0 0 0 0 0 0 0 0 0 0 0 0 0 0 0 0 0 -0 -0 0 0 0 0 0 0 0 0 0 0 -0 0 0 0 0 0 0 0 0 0 0 0 0
0 0 0 0 0 0 -0 0 0 0 0 0 0 0 0 0 0 0 0 0 0 0 0 0 0 0 0 0 0 0 0 -0 0 0 0 0 0 0 0 0 0 0 -0 -0 0 0 0 0 0 0 0 0 0 0
Wind_Speed_500mb
46 47 48 47 44 41 39 35 35 33 30 29 26 25 21 20 23 17 11 17 12 13 38 49 39 29 13 6 4 14 16 4 4 3 5 6 6 5 1 3 5 7 8 6 3 2 10 2 6 6 8 10 23 40
51 50 46 42 39 36 35 34 32 29 27 26 25 20 17 23 20 17 10 15 22 27 33 48 62 51 40 37 38 11 8 5 4 4 1 2 1 2 2 4 4 2 8 6 13 9 8 5 7 27 31 21 41 50
45 43 41 33 31 33 35 32 28 23 25 25 23 20 22 22 14 18 24 25 22 22 39 20 6 5 13 14 32 15 13 14 8 4 6 3 1 4 4 7 2 1 5 4 4 5 7 28 24 17 32 41 43 42
41 39 37 28 32 30 29 28 24 23 23 23 25 22 15 14 15 21 26 23 20 12 10 13 4 40 35 25 35 36 25 9 2 1 2 4 3 7 5 4 6 9 4 4 8 18 23 14 24 37 38 35 34 39
35 35 34 29 29 29 32 31 27 23 25 24 25 16 15 21 25 31 31 27 23 18 8 25 38 7 7 10 23 28 40 27 4 3 2 3 4 4 1 2 6 14 11 8 9 11 11 31 39 38 32 32 36 40
33 32 30 29 31 27 31 30 29 28 26 26 22 19 22 25 26 23 6 7 10 19 9 7 15 10 23 8 25 28 37 33 10 5 5 5 5 4 4 5 13 18 15 8 6 21 29 35 30 21 28 31 40 40
33 31 31 30 29 27 35 26 28 21 22 23 21 23 24 20 20 16 9 4 3 12 7 13 19 9 24 6 10 19 25 14 13 5 5 5 6 8 4 6 13 6 12 16 23 19 23 12 19 20 23 34 33 32
34 32 31 29 30 28 27 25 20 18 26 25 21 22 15 17 28 14 8 21 26 12 7 5 9 14 18 9 5 11 17 14 10 7 3 5 6 4 5 25 27 23 21 15 13 23 17 19 21 13 21 32 34 39
33 29 28 28 18 18 21 20 18 20 22 20 19 10 22 11 7 3 2 3 9 14 4 4 4 5 13 6 5 5 6 4 6 6 7 9 1 8 15 20 18 15 13 22 18 11 10 15 13 16 17 26 36 39
31 25 22 12 13 20 17 14 17 17 19 14 7 8 6 5 5 1 2 4 6 10 8 7 7 7 10 7 2 5 1 4 5 7 12 4 7 40 41 38 39 23 19 12 7 8 12 12 18 16 16 20 27 37
24 21 21 20 23 18 13 16 18 18 12 2 4 3 7 3 4 3 5 4 5 5 9 12 18 7 4 3 4 8 3 2 3 5 6 4 6 9 2 4 2 1 2 1 4 10 6 8 17 23 19 22 28 33
19 16 22 16 12 12 17 18 15 13 5 5 9 10 5 1 4 4 4 3 6 4 7 8 12 15 7 11 3 5 2 3 2 9 3 3 6 9 5 9 8 7 6 3 6 8 8 11 16 25 30 28 28 29
15 11 13 9 9 16 15 7 9 8 4 5 4 4 3 3 1 4 3 3 4 6 8 10 4 7 8 11 7 2 4 5 11 3 5 7 9 2 7 8 6 6 7 4 11 8 9 15 17 23 34 30 25 25
16 13 9 7 9 7 7 6 4 13 5 2 3 6 3 3 4 2 4 5 12 17 31 23 11 10 9 5 4 4 4 3 4 2 5 4 3 4 7 5 3 3 8 9 13 11 10 14 13 22 34 38 26 20
16 16 12 9 8 4 7 3 6 10 6 1 1 3 4 8 5 20 22 17 23 27 25 11 5 4 5 3 3 2 3 4 7 2 4 0 3 5 5 4 2 3 6 7 8 13 13 15 11 23 38 42 34 21
9 15 27 13 3 1 6 15 6 8 3 2 4 5 9 9 11 15 14 34 38 29 29 4 2 5 4 2 4 5 3 4 2 6 9 7 9 8 3 2 2 1 3 6 6 7 17 17 14 19 33 43 46 37
13 12 10 14 14 13 14 13 6 2 2 3 6 10 18 20 19 19 22 38 39 23 6 6 7 7 5 4 4 5 4 3 13 11 11 16 16 12 6 1 6 5 2 3 3 6 7 13 18 24 28 38 47 50
16 11 12 11 11 8 4 4 3 2 4 9 8 9 15 21 25 30 24 31 22 19 5 2 1 6 5 5 3 3 5 10 10 19 22 24 21 10 4 3 7 4 2 2 2 3 3 7 14 18 23 32 40 49
16 4 7 6 8 9 5 3 3 4 7 10 14 15 20 24 26 20 19 22 21 17 5 5 6 5 4 6 6 7 5 5 13 23 27 31 33 18 6 7 5 5 1 2 6 3 5 7 12 16 20 27 36 45
11 6 4 9 10 6 4 3 5 6 7 7 16 14 18 21 22 22 13 10 12 8 9 6 5 10 6 3 17 15 9 13 19 20 27 32 32 36 20 9 12 7 4 3 4 7 6 12 14 16 18 23 28 37
9 4 8 11 7 5 4 4 6 7 10 10 17 20 15 17 12 8 5 7 4 4 4 7 15 17 9 16 23 15 18 20 20 22 23 31 16 27 26 15 10 10 3 4 10 4 10 16 19 17 19 19 22 29
9 11 11 9 4 5 6 6 9 12 8 12 17 7 10 9 7 4 2 3 8 9 11 15 11 17 31 34 30 25 12 8 11 16 17 12 16 24 18 17 12 8 10 9 5 6 11 17 19 20 20 20 17 21
10 13 8 6 4 5 6 8 6 5 4 8 12 7 7 6 7 7 6 8 8 20 19 14 10 17 20 24 23 20 16 15 12 13 17 20 16 17 17 13 10 8 11 10 11 13 17 21 18 19 21 21 19 19
11 8 4 4 3 6 9 5 6 6 6 5 3 5 3 6 9 7 5 6 14 25 20 17 10 6 7 9 18 20 18 14 10 9 12 16 16 17 12 9 14 12 17 9 11 17 21 25 26 24 24 23 19 14
5 2 4 5 4 5 6 5 4 4 3 2 3 4 7 9 3 3 4 5 24 29 25 22 17 16 16 12 13 20 19 17 14 10 10 11 17 16 12 14 16 4 19 22 18 21 28 30 30 29 24 20 16 10
4 3 4 3 3 2 5 7 6 6 4 4 3 7 7 3 5 6 6 17 22 28 26 22 20 12 10 25 22 23 20 9 12 12 9 8 13 17 20 22 16 19 17 23 22 26 28 30 29 23 22 21 7 7
3 5 3 4 4 8 8 8 10 5 5 7 6 8 6 7 7 5 10 12 20 19 18 17 15 13 13 21 21 10 17 15 12 12 8 9 14 20 23 24 26 25 25 20 17 19 22 26 30 25 20 9 10 11
8 5 4 2 6 2 4 5 4 6 7 10 4 6 4 2 3 9 11 16 16 10 13 15 11 5 10 16 14 8 7 5 7 10 16 9 7 8 13 16 22 29 31 17 11 16 21 22 24 19 19 6 6 10
7 6 5 6 6 4 4 4 3 1 6 9 7 3 3 1 3 9 14 16 17 13 12 16 9 13 14 12 10 13 10 9 7 7 10 7 7 10 12 11 11 11 8 7 9 14 17 24 18 10 6 4 8 19
6 12 7 4 5 5 2 3 5 9 5 4 1 1 4 6 6 10 11 11 12 11 7 15 17 4 6 10 12 14 14 15 13 13 16 20 22 21 18 18 20 22 20 22 24 24 21 17 14 7 10 15 17 16
5 12 7 5 3 2 6 3 2 4 4 5 5 3 1 4 9 12 11 13 15 12 9 9 15 6 3 5 9 10 11 16 18 17 18 21 24 24 21 19 21 21 17 24 27 26 18 12 12 10 14 17 12 8
4 6 7 5 3 5 3 3 4 4 3 3 5 2 1 5 5 10 20 16 8 6 5 5 5 8 10 11 13 14 17 20 22 24 20 18 22 23 20 20 21 21 21 22 24 22 16 7 15 15 23 23 8 11
5 7 8 6 3 4 3 3 5 6 8 4 4 7 5 4 6 16 20 19 11 8 5 3 2 2 9 13 14 15 19 20 21 21 20 25 23 23 21 20 21 22 24 25 22 19 14 9 9 11 12 8 13 15
Wind_Direction_500mb
300 300 302 304 304 304 304 304 304 304 304 303 305 308 311 318 323 327 286 264 280 260 275 278 275 268 226 182 156 341 340 273 340 168 157 215 191 225 254 250 185 176 151 204 109 186 272 119 84 165 226 285 314 311
299 299 298 298 299 301 303 302 301 302 304 303 303 303 309 304 315 313 323 254 271 273 268 282 281 266 240 255 277 267 260 284 252 95 193 107 183 43 141 225 353 210 180 191 174 219 238 249 274 292 296 277 306 306
300 300 295 289 296 306 306 302 297 298 303 302 304 294 292 300 292 288 295 299 306 295 303 277 262 130 344 271 212 207 236 231 252 260 170 159 208 128 188 242 273 295 171 191 24 295 266 309 307 316 312 306 308 311
300 303 298 276 291 301 309 309 303 294 300 299 308 304 296 291 295 296 298 299 299 295 284 289 297 307 288 260 225 240 237 193 138 233 139 128 187 188 216 245 194 212 162 184 268 285 293 291 312 319 316 314 323 320
300 304 304 268 276 288 301 303 294 291 298 298 299 296 287 289 293 292 291 284 274 230 280 291 313 31 1 257 226 229 202 217 321 28 130 236 208 146 9 36 250 192 189 162 221 247 273 285 310 318 322 321 320 323
300 301 303 277 278 279 296 298 298 292 286 280 280 287 290 301 307 319 296 250 195 216 271 298 314 292 355 316 207 202 196 219 224 212 218 238 221 180 121 236 257 219 222 197 261 301 296 304 315 329 331 337 331 331
299 296 293 282 273 272 291 291 292 288 292 279 281 286 294 300 305 295 267 264 172 6 314 305 315 310 352 59 139 180 190 194 214 220 223 213 205 194 141 232 256 233 242 266 297 310 312 335 326 331 344 348 345 344
298 288 292 285 277 281 289 282 280 292 283 284 276 294 297 285 290 315 317 239 226 278 279 284 278 320 6 2 107 137 156 166 209 212 199 195 157 197 267 248 266 277 293 292 318 319 316 329 324 334 352 1 6 6
303 287 282 285 294 301 283 284 291 277 283 292 297 290 293 271 225 19 14 128 193 218 274 247 273 294 337 344 57 84 131 143 186 200 213 155 166 234 231 257 273 287 290 306 321 334 338 338 344 340 343 357 2 2
298 281 280 277 267 272 279 284 271 281 288 289 300 273 236 206 3 290 251 238 215 210 223 252 260 270 332 352 32 116 37 199 194 218 145 170 252 252 262 267 278 287 291 292 313 334 355 25 10 349 339 338 342 355
300 296 274 261 251 268 270 284 273 279 269 207 282 324 83 22 302 233 230 200 187 237 219 236 225 246 251 207 255 200 204 169 211 172 187 201 273 253 324 297 238 227 142 164 281 330 19 1 4 356 339 335 328 335
306 285 277 256 240 269 285 279 266 251 191 58 332 312 305 204 218 253 227 180 213 256 221 222 236 224 258 223 259 212 220 186 264 137 208 243 257 283 333 135 123 119 99 90 4 20 17 4 347 350 347 332 323 323
351 347 327 287 268 292 272 247 231 240 195 36 305 298 311 213 5 258 248 170 255 217 240 238 270 222 229 219 253 186 83 225 145 181 219 233 280 338 150 151 123 103 54 16 0 20 7 351 347 351 354 343 322 328
346 352 351 348 309 284 208 232 210 196 137 303 338 305 197 222 264 298 290 251 296 285 289 263 231 207 208 176 208 224 222 97 161 246 248 246 149 78 152 166 74 107 30 17 16 27 19 8 6 9 7 4 353 342
2 351 322 304 279 252 238 219 193 184 158 291 289 280 261 309 288 307 313 292 314 288 302 292 215 174 160 191 232 195 234 241 192 212 254 45 78 75 74 58 67 121 29 27 36 30 21 16 17 17 19 17 15 4
8 41 38 43 77 73 144 150 134 158 178 275 249 286 282 274 309 322 352 319 321 313 315 262 105 179 146 206 201 230 299 82 49 307 347 39 43 19 360 319 188 145 4 21 20 6 19 31 38 32 25 27 27 24
62 50 56 52 59 81 86 115 81 39 305 276 274 280 278 288 275 309 326 320 328 329 354 44 20 17 305 325 37 9 40 335 310 357 45 23 4 355 355 197 190 203 266 341 336 11 5 27 42 47 34 27 25 27
100 72 54 51 57 55 41 17 20 39 272 263 270 292 301 291 294 306 314 325 337 337 38 119 336 9 8 335 283 272 302 336 50 78 56 40 30 15 13 153 155 166 257 248 243 356 13 3 18 30 28 24 20 23
23 69 41 37 12 0 6 338 326 290 265 288 285 299 302 298 301 306 318 336 338 335 337 125 62 0 306 310 310 354 8 53 81 76 61 49 47 47 77 116 143 183 205 302 228 270 6 339 344 360 9 9 14 18
22 25 355 350 343 333 335 319 302 286 275 306 293 301 310 296 303 314 323 358 357 2 24 51 84 314 253 119 2 356 69 84 61 49 46 47 41 33 42 65 45 44 167 17 334 235 332 335 329 327 342 349 359 12
10 356 328 342 340 319 298 294 263 267 301 286 301 309 293 291 294 316 18 32 67 39 37 91 112 337 359 341 6 65 80 66 52 34 41 54 21 11 44 61 66 40 9 328 360 288 300 331 335 322 311 324 346 5
16 2 350 353 329 310 288 267 274 298 277 290 304 294 290 305 306 337 340 33 53 12 0 344 3 293 318 336 349 5 17 24 10 20 27 41 15 33 49 56 60 42 15 7 348 320 331 345 342 335 306 306 326 353
341 339 343 344 328 294 307 301 284 270 265 312 326 322 311 301 331 343 68 63 57 357 344 349 327 307 331 349 356 13 11 2 350 5 15 20 27 16 29 36 23 52 46 6 337 330 322 327 322 326 310 295 303 334
339 332 328 309 276 275 286 269 247 264 277 275 265 277 283 315 346 48 63 55 358 354 11 20 25 8 19 17 18 8 359 1 341 318 329 1 17 15 354 333 1 21 11 328 300 311 319 323 323 312 305 296 285 334
331 280 305 294 264 293 274 281 295 277 278 287 336 320 330 340 49 75 92 36 350 356 6 15 33 55 47 13 1 6 4 342 342 21 15 337 351 21 42 23 5 313 14 16 353 317 312 310 311 314 311 306 285 8
281 250 213 293 309 298 320 313 324 331 297 289 289 334 344 12 29 58 38 3 359 356 352 354 358 4 37 15 358 334 335 328 41 36 41 41 8 4 6 5 7 14 355 353 357 359 357 340 332 304 306 322 287 39
286 279 269 243 306 328 303 292 289 299 302 9 7 14 35 46 35 348 343 359 352 351 348 340 329 334 344 354 356 25 73 71 38 15 15 334 337 344 336 333 333 330 336 321 329 342 357 0 2 345 327 340 118 352
242 264 212 258 299 252 276 292 306 353 359 349 338 40 45 51 285 334 327 354 22 24 12 347 351 9 31 16 0 43 59 9 328 325 321 291 316 325 305 304 305 308 306 283 289 307 320 332 355 3 1 23 177 347
240 219 234 262 235 222 236 258 280 25 14 4 354 37 43 302 337 337 359 36 29 25 21 39 70 62 62 49 43 61 51 43 27 353 10 349 309 280 292 304 314 333 322 303 301 301 305 317 324 317 265 205 23 359
245 201 213 195 170 234 197 319 336 325 337 322 255 300 357 351 37 14 16 17 4 7 24 19 12 15 44 7 355 26 31 25 13 2 351 345 343 339 331 319 321 318 320 323 323 312 310 310 303 317 238 180 354 327
227 176 186 193 236 227 257 284 145 93 106 102 93 124 64 11 51 38 5 330 335 346 354 318 324 351 337 299 325 324 333 347 351 348 346 336 325 324 330 331 336 340 325 333 341 342 303 272 267 302 230 209 303 266
147 179 186 178 103 142 116 47 70 87 126 86 55 69 47 27 28 29 9 2 10 12 23 44 35 24 19 12 1 351 344 340 341 341 332 330 336 335 328 329 333 339 344 346 348 354 2 308 262 262 221 228 213 170
87 88 93 100 112 146 131 90 54 66 73 83 72 80 30 43 33 13 9 14 29 26 32 68 87 347 337 334 332 322 314 313 317 322 328 339 340 345 343 337 335 337 339 336 336 338 334 323 286 233 233 215 178 144
Wind_Speed_850mb
46 47 48 47 44 41 39 35 35 33 30 29 26 25 21 20 23 17 11 17 12 13 38 49 39 29 13 6 4 14 16 4 4 3 5 6 6 5 1 3 5 7 8 6 3 2 10 2 6 6 8 10 23 40
51 50 46 42 39 36 35 34 32 29 27 26 25 20 17 23 20 17 10 15 22 27 33 48 62 51 40 37 38 11 8 5 4 4 1 2 1 2 2 4 4 2 8 6 13 9 8 5 7 27 31 21 41 50
45 43 41 33 31 33 35 32 28 23 25 25 23 20 22 22 14 18 24 25 22 22 39 20 6 5 13 14 32 15 13 14 8 4 6 3 1 4 4 7 2 1 5 4 4 5 7 28 24 17 32 41 43 42
41 39 37 28 32 30 29 28 24 23 23 23 25 22 15 14 15 21 26 23 20 12 10 13 4 40 35 25 35 36 25 9 2 1 2 4 3 7 5 4 6 9 4 4 8 18 23 14 24 37 38 35 34 39
35 35 34 29 29 29 32 31 27 23 25 24 25 16 15 21 25 31 31 27 23 18 8 25 38 7 7 10 23 28 40 27 4 3 2 3 4 4 1 2 6 14 11 8 9 11 11 31 39 38 32 32 36 40
33 32 30 29 31 27 31 30 29 28 26 26 22 19 22 25 26 23 6 7 10 19 9 7 15 10 23 8 25 28 37 33 10 5 5 5 5 4 4 5 13 18 15 8 6 21 29 35 30 21 28 31 40 40
33 31 31 30 29 27 35 26 28 21 22 23 21 23 24 20 20 16 9 4 3 12 7 13 19 9 24 6 10 19 25 14 13 5 5 5 6 8 4 6 13 6 12 16 23 19 23 12 19 20 23 34 33 32
34 32 31 29 30 28 27 25 20 18 26 25 21 22 15 17 28 14 8 21 26 12 7 5 9 14 18 9 5 11 17 14 10 7 3 5 6 4 5 25 27 23 21 15 13 23 17 19 21 13 21 32 34 39
33 29 28 28 18 18 21 20 18 20 22 20 19 10 22 11 7 3 2 3 9 14 4 4 4 5 13 6 5 5 6 4 6 6 7 9 1 8 15 20 18 15 13 22 18 11 10 15 13 16 17 26 36 39
31 25 22 12 13 20 17 14 17 17 19 14 7 8 6 5 5 1 2 4 6 10 8 7 7 7 10 7 2 5 1 4 5 7 12 4 7 40 41 38 39 23 19 12 7 8 12 12 18 16 16 20 27 37
24 21 21 20 23 18 13 16 18 18 12 2 4 3 7 3 4 3 5 4 5 5 9 12 18 7 4 3 4 8 3 2 3 5 6 4 6 9 2 4 2 1 2 1 4 10 6 8 17 23 19 22 28 33
19 16 22 16 12 12 17 18 15 13 5 5 9 10 5 1 4 4 4 3 6 4 7 8 12 15 7 11 3 5 2 3 2 9 3 3 6 9 5 9 8 7 6 3 6 8 8 11 16 25 30 28 28 29
15 11 13 9 9 16 15 7 9 8 4 5 4 4 3 3 1 4 3 3 4 6 8 10 4 7 8 11 7 2 4 5 11 3 5 7 9 2 7 8 6 6 7 4 11 8 9 15 17 23 34 30 25 25
16 13 9 7 9 7 7 6 4 13 5 2 3 6 3 3 4 2 4 5 12 17 31 23 11 10 9 5 4 4 4 3 4 2 5 4 3 4 7 5 3 3 8 9 13 11 10 14 13 22 34 38 26 20
16 16 12 9 8 4 7 3 6 10 6 1 1 3 4 8 5 20 22 17 23 27 25 11 5 4 5 3 3 2 3 4 7 2 4 0 3 5 5 4 2 3 6 7 8 13 13 15 11 23 38 42 34 21
9 15 27 13 3 1 6 15 6 8 3 2 4 5 9 9 11 15 14 34 38 29 29 4 2 5 4 2 4 5 3 4 2 6 9 7 9 8 3 2 2 1 3 6 6 7 17 17 14 19 33 43 46 37
13 12 10 14 14 13 14 13 6 2 2 3 6 10 18 20 19 19 22 38 39 23 6 6 7 7 5 4 4 5 4 3 13 11 11 16 16 12 6 1 6 5 2 3 3 6 7 13 18 24 28 38 47 50
16 11 12 11 11 8 4 4 3 2 4 9 8 9 15 21 25 30 24 31 22 19 5 2 1 6 5 5 3 3 5 10 10 19 22 24 21 10 4 3 7 4 2 2 2 3 3 7 14 18 23 32 40 49
16 4 7 6 8 9 5 3 3 4 7 10 14 15 20 24 26 20 19 22 21 17 5 5 6 5 4 6 6 7 5 5 13 23 27 31 33 18 6 7 5 5 1 2 6 3 5 7 12 16 20 27 36 45
11 6 4 9 10 6 4 3 5 6 7 7 16 14 18 21 22 22 13 10 12 8 9 6 5 10 6 3 17 15 9 13 19 20 27 32 32 36 20 9 12 7 4 3 4 7 6 12 14 16 18 23 28 37
9 4 8 11 7 5 4 4 6 7 10 10 17 20 15 17 12 8 5 7 4 4 4 7 15 17 9 16 23 15 18 20 20 22 23 31 16 27 26 15 10 10 3 4 10 4 10 16 19 17 19 19 22 29
9 11 11 9 4 5 6 6 9 12 8 12 17 7 10 9 7 4 2 3 8 9 11 15 11 17 31 34 30 25 12 8 11 16 17 12 16 24 18 17 12 8 10 9 5 6 11 17 19 20 20 20 17 21
10 13 8 6 4 5 6 8 6 5 4 8 12 7 7 6 7 7 6 8 8 20 19 14 10 17 20 24 23 20 16 15 12 13 17 20 16 17 17 13 10 8 11 10 11 13 17 21 18 19 21 21 19 19
11 8 4 4 3 6 9 5 6 6 6 5 3 5 3 6 9 7 5 6 14 25 20 17 10 6 7 9 18 20 18 14 10 9 12 16 16 17 12 9 14 12 17 9 11 17 21 25 26 24 24 23 19 14
5 2 4 5 4 5 6 5 4 4 3 2 3 4 7 9 3 3 4 5 24 29 25 22 17 16 16 12 13 20 19 17 14 10 10 11 17 16 12 14 16 4 19 22 18 21 28 30 30 29 24 20 16 10
4 3 4 3 3 2 5 7 6 6 4 4 3 7 7 3 5 6 6 17 22 28 26 22 20 12 10 25 22 23 20 9 12 12 9 8 13 17 20 22 16 19 17 23 22 26 28 30 29 23 22 21 7 7
3 5 3 4 4 8 8 8 10 5 5 7 6 8 6 7 7 5 10 12 20 19 18 17 15 13 13 21 21 10 17 15 12 12 8 9 14 20 23 24 26 25 25 20 17 19 22 26 30 25 20 9 10 11
8 5 4 2 6 2 4 5 4 6 7 10 4 6 4 2 3 9 11 16 16 10 13 15 11 5 10 16 14 8 7 5 7 10 16 9 7 8 13 16 22 29 31 17 11 16 21 22 24 19 19 6 6 10
7 6 5 6 6 4 4 4 3 1 6 9 7 3 3 1 3 9 14 16 17 13 12 16 9 13 14 12 10 13 10 9 7 7 10 7 7 10 12 11 11 11 8 7 9 14 17 24 18 10 6 4 8 19
6 12 7 4 5 5 2 3 5 9 5 4 1 1 4 6 6 10 11 11 12 11 7 15 17 4 6 10 12 14 14 15 13 13 16 20 22 21 18 18 20 22 20 22 24 24 21 17 14 7 10 15 17 16
5 12 7 5 3 2 6 3 2 4 4 5 5 3 1 4 9 12 11 13 15 12 9 9 15 6 3 5 9 10 11 16 18 17 18 21 24 24 21 19 21 21 17 24 27 26 18 12 12 10 14 17 12 8
4 6 7 5 3 5 3 3 4 4 3 3 5 2 1 5 5 10 20 16 8 6 5 5 5 8 10 11 13 14 17 20 22 24 20 18 22 23 20 20 21 21 21 22 24 22 16 7 15 15 23 23 8 11
5 7 8 6 3 4 3 3 5 6 8 4 4 7 5 4 6 16 20 19 11 8 5 3 2 2 9 13 14 15 19 20 21 21 20 25 23 23 21 20 21 22 24 25 22 19 14 9 9 11 12 8 13 15
Wind_Direction_850mb
300 300 302 304 304 304 304 304 304 304 304 303 305 308 311 318 323 327 286 264 280 260 275 278 275 268 226 182 156 341 340 273 340 168 157 215 191 225 254 250 185 176 151 204 109 186 272 119 84 165 226 285 314 311
299 299 298 298 299 301 303 302 301 302 304 303 303 303 309 304 315 313 323 254 271 273 268 282 281 266 240 255 277 267 260 284 252 95 193 107 183 43 141 225 353 210 180 191 174 219 238 249 274 292 296 277 306 306
300 300 295 289 296 306 306 302 297 298 303 302 304 294 292 300 292 288 295 299 306 295 303 277 262 130 344 271 212 207 236 231 252 260 170 159 208 128 188 242 273 295 171 191 24 295 266 309 307 316 312 306 308 311
300 303 298 276 291 301 309 309 303 294 300 299 308 304 296 291 295 296 298 299 299 295 284 289 297 307 288 260 225 240 237 193 138 233 139 128 187 188 216 245 194 212 162 184 268 285 293 291 312 319 316 314 323 320
300 304 304 268 276 288 301 303 294 291 298 298 299 296 287 289 293 292 291 284 274 230 280 291 313 31 1 257 226 229 202 217 321 28 130 236 208 146 9 36 250 192 189 162 221 247 273 285 310 318 322 321 320 323
300 301 303 277 278 279 296 298 298 292 286 280 280 287 290 301 307 319 296 250 195 216 271 298 314 292 355 316 207 202 196 219 224 212 218 238 221 180 121 236 257 219 222 197 261 301 296 304 315 329 331 337 331 331
299 296 293 282 273 272 291 291 292 288 292 279 281 286 294 300 305 295 267 264 172 6 314 305 315 310 352 59 139 180 190 194 214 220 223 213 205 194 141 232 256 233 242 266 297 310 312 335 326 331 344 348 345 344
298 288 292 285 277 281 289 282 280 292 283 284 276 294 297 285 290 315 317 239 226 278 279 284 278 320 6 2 107 137 156 166 209 212 199 195 157 197 267 248 266 277 293 292 318 319 316 329 324 334 352 1 6 6
303 287 282 285 294 301 283 284 291 277 283 292 297 290 293 271 225 19 14 128 193 218 274 247 273 294 337 344 57 84 131 143 186 200 213 155 166 234 231 257 273 287 290 306 321 334 338 338 344 340 343 357 2 2
298 281 280 277 267 272 279 284 271 281 288 289 300 273 236 206 3 290 251 238 215 210 223 252 260 270 332 352 32 116 37 199 194 218 145 170 252 252 262 267 278 287 291 292 313 334 355 25 10 349 339 338 342 355
300 296 274 261 251 268 270 284 273 279 269 207 282 324 83 22 302 233 230 200 187 237 219 236 225 246 251 207 255 200 204 169 211 172 187 201 273 253 324 297 238 227 142 164 281 330 19 1 4 356 339 335 328 335
306 285 277 256 240 269 285 279 266 251 191 58 332 312 305 204 218 253 227 180 213 256 221 222 236 224 258 223 259 212 220 186 264 137 208 243 257 283 333 135 123 119 99 90 4 20 17 4 347 350 347 332 323 323
351 347 327 287 268 292 272 247 231 240 195 36 305 298 311 213 5 258 248 170 255 217 240 238 270 222 229 219 253 186 83 225 145 181 219 233 280 338 150 151 123 103 54 16 0 20 7 351 347 351 354 343 322 328
346 352 351 348 309 284 208 232 210 196 137 303 338 305 197 222 264 298 290 251 296 285 289 263 231 207 208 176 208 224 222 97 161 246 248 246 149 78 152 166 74 107 30 17 16 27 19 8 6 9 7 4 353 342
2 351 322 304 279 252 238 219 193 184 158 291 289 280 261 309 288 307 313 292 314 288 302 292 215 174 160 191 232 195 234 241 192 212 254 45 78 75 74 58 67 121 29 27 36 30 21 16 17 17 19 17 15 4
8 41 38 43 77 73 144 150 134 158 178 275 249 286 282 274 309 322 352 319 321 313 315 262 105 179 146 206 201 230 299 82 49 307 347 39 43 19 360 319 188 145 4 21 20 6 19 31 38 32 25 27 27 24
62 50 56 52 59 81 86 115 81 39 305 276 274 280 278 288 275 309 326 320 328 329 354 44 20 17 305 325 37 9 40 335 310 357 45 23 4 355 355 197 190 203 266 341 336 11 5 27 42 47 34 27 25 27
100 72 54 51 57 55 41 17 20 39 272 263 270 292 301 291 294 306 314 325 337 337 38 119 336 9 8 335 283 272 302 336 50 78 56 40 30 15 13 153 155 166 257 248 243 356 13 3 18 30 28 24 20 23
23 69 41 37 12 0 6 338 326 290 265 288 285 299 302 298 301 306 318 336 338 335 337 125 62 0 306 310 310 354 8 53 81 76 61 49 47 47 77 116 143 183 205 302 228 270 6 339 344 360 9 9 14 18
22 25 355 350 343 333 335 319 302 286 275 306 293 301 310 296 303 314 323 358 357 2 24 51 84 314 253 119 2 356 69 84 61 49 46 47 41 33 42 65 45 44 167 17 334 235 332 335 329 327 342 349 359 12
10 356 328 342 340 319 298 294 263 267 301 286 301 309 293 291 294 316 18 32 67 39 37 91 112 337 359 341 6 65 80 66 52 34 41 54 21 11 44 61 66 40 9 328 360 288 300 331 335 322 311 324 346 5
16 2 350 353 329 310 288 267 274 298 277 290 304 294 290 305 306 337 340 33 53 12 0 344 3 293 318 336 349 5 17 24 10 20 27 41 15 33 49 56 60 42 15 7 348 320 331 345 342 335 306 306 326 353
341 339 343 344 328 294 307 301 284 270 265 312 326 322 311 301 331 343 68 63 57 357 344 349 327 307 331 349 356 13 11 2 350 5 15 20 27 16 29 36 23 52 46 6 337 330 322 327 322 326 310 295 303 334
339 332 328 309 276 275 286 269 247 264 277 275 265 277 283 315 346 48 63 55 358 354 11 20 25 8 19 17 18 8 359 1 341 318 329 1 17 15 354 333 1 21 11 328 300 311 319 323 323 312 305 296 285 334
331 280 305 294 264 293 274 281 295 277 278 287 336 320 330 340 49 75 92 36 350 356 6 15 33 55 47 13 1 6 4 342 342 21 15 337 351 21 42 23 5 313 14 16 353 317 312 310 311 314 311 306 285 8
281 250 213 293 309 298 320 313 324 331 297 289 289 334 344 12 29 58 38 3 359 356 352 354 358 4 37 15 358 334 335 328 41 36 41 41 8 4 6 5 7 14 355 353 357 359 357 340 332 304 306 322 287 39
286 279 269 243 306 328 303 292 289 299 302 9 7 14 35 46 35 348 343 359 352 351 348 340 329 334 344 354 356 25 73 71 38 15 15 334 337 344 336 333 333 330 336 321 329 342 357 0 2 345 327 340 118 352
242 264 212 258 299 252 276 292 306 353 359 349 338 40 45 51 285 334 327 354 22 24 12 347 351 9 31 16 0 43 59 9 328 325 321 291 316 325 305 304 305 308 306 283 289 307 320 332 355 3 1 23 177 347
240 219 234 262 235 222 236 258 280 25 14 4 354 37 43 302 337 337 359 36 29 25 21 39 70 62 62 49 43 61 51 43 27 353 10 349 309 280 292 304 314 333 322 303 301 301 305 317 324 317 265 205 23 359
245 201 213 195 170 234 197 319 336 325 337 322 255 300 357 351 37 14 16 17 4 7 24 19 12 15 44 7 355 26 31 25 13 2 351 345 343 339 331 319 321 318 320 323 323 312 310 310 303 317 238 180 354 327
227 176 186 193 236 227 257 284 145 93 106 102 93 124 64 11 51 38 5 330 335 346 354 318 324 351 337 299 325 324 333 347 351 348 346 336 325 324 330 331 336 340 325 333 341 342 303 272 267 302 230 209 303 266
147 179 186 178 103 142 116 47 70 87 126 86 55 69 47 27 28 29 9 2 10 12 23 44 35 24 19 12 1 351 344 340 341 341 332 330 336 335 328 329 333 339 344 346 348 354 2 308 262 262 221 228 213 170
87 88 93 100 112 146 131 90 54 66 73 83 72 80 30 43 33 13 9 14 29 26 32 68 87 347 337 334 332 322 314 313 317 322 328 339 340 345 343 337 335 337 339 336 336 338 334 323 286 233 233 215 178 144